Regional Weather Roundup
Issued by NWS

Home | Current Version | Previous Version | Graphics & Text | Print | Product List | Glossary On
Versions: 1 2 3 4 5 6 7 8 9 10 11 12 13 14 15
000
ASUS45 KTFX 152310
RWRMT
MONTANA REGIONAL WEATHER ROUNDUP
NATIONAL WEATHER SERVICE GREAT FALLS MT
400 PM MST SUN JAN 15 2017

NOTE: "FAIR" INDICATES FEW OR NO CLOUDS BELOW 12000 FEET WITH NO
SIGNIFICANT WEATHER AND/OR OBSTRUCTIONS TO VISIBILITY.

MTZ001>007-043-160000-
WEST OF THE DIVIDE

CITY           SKY/WX    TMP DP  RH WIND       PRES   REMARKS
KALISPELL      FLURRIES  15  11  83 SE6       30.28R WCI   6
MISSOULA       CLEAR      6  -1  73 CALM      30.28R
BUTTE          CLOUDY    14   3  61 SE6       30.08R WCI   5
MULLAN PASS    CLEAR     22  12  65 VRB3      30.10R
ANACONDA         N/A     12   1  62 N3        30.13R
DEER LODGE       N/A      9   1  72 CALM      30.17S
EUREKA           N/A     16   9  73 CALM      30.30S
HAMILTON         N/A      7   1  78 NE7       30.24R WCI  -5
RONAN            N/A      4  -1  79 MISG      30.26F
$$

MTZ008-052>055-160000-
SOUTHWEST MONTANA

CITY           SKY/WX    TMP DP  RH WIND       PRES   REMARKS
BOZEMAN        CLOUDY    13   4  67 CALM      30.12R
DILLON         CLOUDY    24   2  38 SW7       30.08S WCI  16
W YELLOWSTONE  CLOUDY    14   5  67 CALM      30.06S
ENNIS          CLEAR     16   7  67 W3        30.12S
TWIN BRIDGES     N/A     13  -1  53 SE5       30.09R
$$

MTZ009-010-012-014-046-048-049-054-160000-
EAST SLOPES AND CENTRAL MONTANA

CITY           SKY/WX    TMP DP  RH WIND       PRES   REMARKS
CUT BANK       CLOUDY    32  19  58 W18       29.95R WCI  20
GREAT FALLS    CLOUDY    32  14  47 SW20      29.97R WCI  20
MALMSTROM AFB  CLOUDY    29  17  62 SW17      29.98S WCI  17
HELENA         CLOUDY     4  -3  73 E3        30.14S
AUGUSTA          N/A     34  12  39 W20       29.95R WCI  23
BOWMANS CRNR     N/A     23   8  52 S21       29.97R WCI   8
CHOTEAU          N/A     36  12  38 W7        29.99R WCI  30
CONRAD           N/A     35  20  55 SW14      29.98R WCI  26
FAIRFIELD        N/A     29  13  52 SW15      29.96R WCI  17
POWER            N/A     27  15  60 SW15      29.97R WCI  15
RAYNESFORD       N/A     39  13  33 CALM      29.97S
ULM              N/A     32  14  46 MISG      30.00R
$$

MTZ011-013-016-021-045-047-050-051-160000-
NORTH CENTRAL MONTANA

CITY           SKY/WX    TMP DP  RH WIND       PRES   REMARKS
HAVRE          CLOUDY    27  18  69 SW18      29.95R WCI  14
LEWISTOWN      CLOUDY    31  10  41 S5        29.97
N BAR RANCH      N/A     37  10  32 NW16      29.97R WCI  28
CHINOOK          N/A     32  18  55 W9        29.95R WCI  24
DENTON           N/A     35  16  46 SW16G22   29.93R WCI  25
FORT BENTON      N/A     36  18  48 MISG      29.99R
GEYSER           N/A     37  12  36 W15       29.96R WCI  28
GRASS RANGE      N/A     37  15  39 W16       29.93R WCI  28
JUDITH GAP       N/A     30  12  48 N5        29.96R
ROY              N/A     33  20  59 MISG      29.94R
STANFORD         N/A     31  18  59 NW9       29.96R WCI  22
WINIFRED         N/A     35  16  44 SW9       29.95R WCI  28
$$

MTZ017>020-022>027-061-062-160000-
NORTHEAST MONTANA

CITY           SKY/WX    TMP DP  RH WIND       PRES   REMARKS
GLASGOW        CLOUDY    12   5  73 S9        29.94S WCI   0
JORDAN           N/A     27  17  66 SW9       29.95R WCI  18
SIDNEY         CLOUDY    16   8  71 SW13      29.99F WCI   2
WOLF POINT     CLOUDY    12   1  61 W6        29.97S WCI   3
PLENTYWOOD       N/A     16   9  73 SE7       29.92R WCI   6
POPLAR           N/A     14   3  62 CALM      29.98S
SCOBEY           N/A     21   5  50 S1        29.90R
$$

MTZ028>42-056>058-160000-
SOUTHCENTRAL AND SOUTHEAST MONTANA

CITY           SKY/WX    TMP DP  RH WIND       PRES   REMARKS
BAKER          CLOUDY    25  10  53 NW3       30.01R
BILLINGS       CLOUDY    27  10  49 SW24      30.00R WCI  12
LIVINGSTON     CLOUDY    29  10  45 W13       30.03R WCI  19
MILES CITY     CLOUDY    18   4  54 S5        30.01S
BIG TIMBER     CLEAR     34   9  35 W30G41    29.98R WCI  20
FORSYTH          N/A     19   9  63 CALM      30.01R
HARLOWTON        N/A     33  12  42 W25G33    29.97R WCI  20
LAUREL           N/A     25   9  50 S17       29.99R WCI  12
$$

REGIONAL REPORTS...DAKOTAS

CITY           SKY/WX    TMP DP  RH WIND       PRES   REMARKS
WILLISTON      CLOUDY    18   7  62 S6        29.98R WCI  10
MINOT          CLOUDY    22  10  60 SW17      29.96R WCI   8
DICKINSON      CLOUDY    22  10  60 SW16      29.98R WCI   8
BEACH            N/A     25  10  54 SW20      30.00S WCI  11
CROSBY           N/A     16   9  73 SW15      29.95R WCI   1
TIOGA            N/A     14   9  79 SW13      29.96S WCI   0
WATFORD CITY     N/A     18   9  68 SW7       29.98S WCI   8
BISMARCK       CLOUDY     8   1  73 SE8       30.04F WCI  -4
GRAND FORKS    CLOUDY    15   7  70 S13       30.01F WCI   1
FARGO          CLOUDY    19  13  77 S10       30.09F WCI   7
BUFFALO SD       N/A     26  16  65 CALM      29.95R
RAPID CITY     CLOUDY    27  14  58 E6        29.99F WCI  20
$$

REGIONAL REPORTS...WYOMING/IDAHO/WASHINGTON

CITY           SKY/WX    TMP DP  RH WIND       PRES   REMARKS
GILLETTE       CLOUDY    34  20  56 CALM      29.96F
SHERIDAN       CLOUDY    19   6  57 SE8       29.98R WCI   9
BUFFALO WY     CLOUDY    33   5  30 NW3       29.96R
CODY           CLOUDY    26  11  52 CALM      29.99S
YELLOWSTONE LA   N/A     -3  -8  79 CALM      30.06R
IDAHO FALLS    CLOUDY    12   6  77 S9        30.17S WCI   0
SALMON         CLOUDY    -8 N/A N/A CALM      30.39S
BOISE          CLOUDY    13   6  74 NW6       30.34S HAZE    WCI   4
SPOKANE        PTSUNNY   10   5  80 W5        30.31S
$$

REGIONAL REPORTS...ALBERTA

CITY           SKY/WX    TMP DP  RH WIND       PRES   REMARKS
EDMONTON       CLEAR     39  19  45 SW6       29.84R
CALGARY        MOCLDY    43  16  33 W16G24    29.91R
LETHBRIDGE     PTCLDY    34  21  60 W20       29.94R WCI  22
MEDICINE HAT   MOCLDY    30  21  69 W3        29.92R
WATERTON GATE    N/A     34  12  40 SW26G43     N/A  WCI  21
CARDSTON         N/A     37  16  41 W15G22      N/A  WCI  28
MILK RIVER       N/A     34  21  60 W21G26      N/A  WCI  22
ONEFOUR          N/A     30  19  64 NW23        N/A  WCI  17
$$

REGIONAL REPORTS...SASKATCHEWAN

CITY           SKY/WX    TMP DP  RH WIND       PRES   REMARKS
SWIFT CURRENT  PTCLDY    28  21  74 W10       29.87R WCI  19
REGINA         PTCLDY    21  14  73 S6        29.86S WCI  14
SASKATOON      MOCLDY    27  21  80 SW8       29.85R WCI  18
CYPRESS HILLS    N/A     34  14  44 NW9         N/A  WCI  26
VAL MARIE        N/A     14   7  73 S3          N/A
ROCKGLEN         N/A     21  12  68 W15         N/A  WCI   8
ASSINIBOIA       N/A     39  21  48 W6          N/A
$$




USA.gov is the U.S. government's official web portal to all federal, state and local government web resources and services.